| time (UTC) | temp F | wind direction | speed MPH | gust MPH | rain 1hr in | rain 24hr in | rain mn in | humidity % | barometer mb |
| 20260510124945 | 55 | 60 | 7.0 | 9.0 | 0.00 | 0.00 | 0.00 | 64 | 1013.5 |
| 20260510124441 | 54 | 38 | 7.0 | 14.0 | 0.00 | 0.00 | 0.00 | 64 | 1013.3 |
| 20260510123937 | 54 | 22 | 12.0 | 15.0 | 0.00 | 0.00 | 0.00 | 65 | 1013.5 |
| 20260510123432 | 54 | 342 | 8.0 | 17.0 | 0.00 | 0.00 | 0.00 | 65 | 1013.5 |
| 20260510122928 | 54 | 8 | 5.0 | 11.0 | 0.00 | 0.00 | 0.00 | 66 | 1013.7 |
| 20260510122424 | 54 | 26 | 6.0 | 22.0 | 0.00 | 0.00 | 0.00 | 67 | 1013.6 |
| 20260510121920 | 54 | 27 | 4.0 | 16.0 | 0.00 | 0.00 | 0.00 | 67 | 1013.7 |
| 20260510121416 | 54 | 340 | 9.0 | 14.0 | 0.00 | 0.00 | 0.00 | 66 | 1013.5 |
| 20260510120912 | 54 | 36 | 4.0 | 9.0 | 0.00 | 0.00 | 0.00 | 66 | 1013.5 |
| 20260510120408 | 54 | 104 | 2.0 | 13.0 | 0.00 | 0.00 | 0.00 | 67 | 1013.7 |
| 20260510115904 | 54 | 66 | 9.0 | 17.0 | 0.00 | 0.00 | 0.00 | 66 | 1013.6 |
| 20260510115401 | 54 | 2 | 9.0 | 14.0 | 0.00 | 0.00 | 0.00 | 66 | 1013.8 |
| 20260510114857 | 54 | 14 | 6.0 | 13.0 | 0.00 | 0.00 | 0.00 | 66 | 1013.7 |
| 20260510114353 | 54 | 46 | 8.0 | 11.0 | 0.00 | 0.00 | 0.00 | 67 | 1014.0 |
| 20260510113849 | 54 | 84 | 4.0 | 9.0 | 0.00 | 0.00 | 0.00 | 68 | 1013.9 |
| 20260510113345 | 54 | 39 | 6.0 | 10.0 | 0.00 | 0.00 | 0.00 | 67 | 1014.2 |
| 20260510112841 | 54 | 24 | 3.0 | 15.0 | 0.00 | 0.00 | 0.00 | 67 | 1014.0 |
| 20260510112337 | 54 | 64 | 2.0 | 13.0 | 0.00 | 0.00 | 0.00 | 68 | 1014.1 |
| 20260510111833 | 53 | 25 | 4.0 | 13.0 | 0.00 | 0.00 | 0.00 | 68 | 1014.3 |
| 20260510111329 | 54 | 18 | 11.0 | 16.0 | 0.00 | 0.00 | 0.00 | 67 | 1014.2 |
| 20260510110824 | 54 | 358 | 5.0 | 14.0 | 0.00 | 0.00 | 0.00 | 67 | 1014.2 |
| 20260510110320 | 53 | 30 | 10.0 | 14.0 | 0.00 | 0.00 | 0.00 | 67 | 1014.0 |
| 20260510105816 | 54 | 20 | 7.0 | 16.0 | 0.00 | 0.00 | 0.00 | 67 | 1014.5 |
| 20260510105312 | 54 | 48 | 8.0 | 13.0 | 0.00 | 0.00 | 0.00 | 68 | 1014.3 |
| 20260510104809 | 54 | 67 | 4.0 | 7.0 | 0.00 | 0.00 | 0.00 | 67 | 1014.3 |
| 20260510104305 | 54 | 23 | 6.0 | 19.0 | 0.00 | 0.00 | 0.00 | 67 | 1014.3 |
| 20260510103801 | 54 | 27 | 9.0 | 18.0 | 0.00 | 0.00 | 0.00 | 66 | 1014.3 |
| 20260510103257 | 54 | 19 | 9.0 | 14.0 | 0.00 | 0.00 | 0.00 | 67 | 1014.3 |
| 20260510102753 | 54 | 30 | 10.0 | 16.0 | 0.00 | 0.00 | 0.00 | 66 | 1014.4 |
| 20260510102249 | 54 | 17 | 7.0 | 16.0 | 0.00 | 0.00 | 0.00 | 67 | 1014.2 |
| 20260510101745 | 54 | 15 | 14.0 | 18.0 | 0.00 | 0.00 | 0.00 | 67 | 1014.4 |
| 20260510101240 | 54 | 12 | 8.0 | 15.0 | 0.00 | 0.00 | 0.00 | 67 | 1014.3 |
| 20260510100736 | 54 | 321 | 9.0 | 19.0 | 0.00 | 0.00 | 0.00 | 68 | 1014.0 |
| 20260510100232 | 54 | 24 | 6.0 | 19.0 | 0.00 | 0.00 | 0.00 | 68 | 1014.1 |
| 20260510095728 | 54 | 19 | 5.0 | 11.0 | 0.00 | 0.00 | 0.00 | 69 | 1014.0 |
| 20260510095225 | 54 | 50 | 6.0 | 11.0 | 0.00 | 0.00 | 0.00 | 70 | 1014.2 |
| 20260510094721 | 53 | 49 | 7.0 | 15.0 | 0.00 | 0.00 | 0.00 | 70 | 1014.3 |
| 20260510094217 | 54 | 65 | 7.0 | 14.0 | 0.00 | 0.00 | 0.00 | 70 | 1014.2 |
| 20260510093712 | 54 | 4 | 5.0 | 16.0 | 0.00 | 0.00 | 0.00 | 70 | 1014.0 |
| 20260510093208 | 54 | 33 | 6.0 | 9.0 | 0.00 | 0.00 | 0.00 | 70 | 1014.3 |
| 20260510092704 | 54 | 25 | 2.0 | 10.0 | 0.00 | 0.00 | 0.00 | 70 | 1014.3 |
| 20260510092200 | 54 | 334 | 8.0 | 11.0 | 0.00 | 0.00 | 0.00 | 71 | 1014.2 |
| 20260510091656 | 53 | 327 | 9.0 | 14.0 | 0.00 | 0.00 | 0.00 | 71 | 1014.1 |
| 20260510091152 | 53 | 30 | 5.0 | 14.0 | 0.00 | 0.00 | 0.00 | 71 | 1014.5 |
| 20260510090648 | 53 | 13 | 7.0 | 11.0 | 0.00 | 0.00 | 0.00 | 72 | 1014.5 |
| 20260510090144 | 53 | 336 | 4.0 | 11.0 | 0.00 | 0.00 | 0.00 | 71 | 1014.5 |
| 20260510085640 | 53 | 20 | 2.0 | 8.0 | 0.00 | 0.00 | 0.00 | 72 | 1014.4 |
| 20260510085137 | 53 | 68 | 7.0 | 16.0 | 0.00 | 0.00 | 0.00 | 71 | 1014.6 |
| 20260510084633 | 53 | 6 | 3.0 | 11.0 | 0.00 | 0.00 | 0.00 | 72 | 1014.8 |
| 20260510084129 | 53 | 10 | 11.0 | 15.0 | 0.00 | 0.00 | 0.00 | 72 | 1014.8 |
| 20260510083625 | 53 | 44 | 10.0 | 13.0 | 0.00 | 0.00 | 0.00 | 72 | 1015.0 |
| 20260510083121 | 53 | 45 | 9.0 | 16.0 | 0.00 | 0.00 | 0.00 | 72 | 1014.6 |
| 20260510082617 | 52 | 64 | 3.0 | 13.0 | 0.00 | 0.00 | 0.00 | 72 | 1014.9 |
| 20260510082113 | 52 | 358 | 11.0 | 17.0 | 0.00 | 0.00 | 0.00 | 73 | 1014.9 |
| 20260510081609 | 52 | 71 | 5.0 | 15.0 | 0.00 | 0.00 | 0.00 | 74 | 1014.6 |
| 20260510081105 | 52 | 20 | 10.0 | 16.0 | 0.00 | 0.00 | 0.00 | 74 | 1014.6 |
| 20260510080601 | 52 | 42 | 7.0 | 11.0 | 0.00 | 0.00 | 0.00 | 75 | 1014.7 |
| 20260510080057 | 52 | 289 | 4.0 | 15.0 | 0.00 | 0.00 | 0.00 | 75 | 1014.7 |
| 20260510075553 | 52 | 54 | 6.0 | 9.0 | 0.00 | 0.00 | 0.00 | 76 | 1014.5 |
| 20260510075049 | 51 | 27 | 10.0 | 14.0 | 0.00 | 0.00 | 0.00 | 76 | 1014.7 |
| 20260510074545 | 51 | 41 | 9.0 | 15.0 | 0.00 | 0.00 | 0.00 | 76 | 1014.6 |
| 20260510074041 | 51 | 22 | 13.0 | 16.0 | 0.00 | 0.00 | 0.00 | 76 | 1014.7 |
| 20260510073537 | 51 | 84 | 2.0 | 13.0 | 0.00 | 0.00 | 0.00 | 77 | 1014.8 |
| 20260510073033 | 51 | 51 | 6.0 | 9.0 | 0.00 | 0.00 | 0.00 | 78 | 1014.7 |
| 20260510072529 | 51 | 25 | 7.0 | 13.0 | 0.00 | 0.00 | 0.00 | 78 | 1014.7 |
| 20260510072025 | 51 | 17 | 7.0 | 18.0 | 0.00 | 0.00 | 0.00 | 79 | 1014.7 |
| 20260510071521 | 51 | 324 | 3.0 | 15.0 | 0.00 | 0.00 | 0.00 | 79 | 1014.9 |
| 20260510071017 | 50 | 344 | 10.0 | 16.0 | 0.00 | 0.00 | 0.00 | 80 | 1014.8 |
| 20260510070513 | 50 | 351 | 5.0 | 11.0 | 0.00 | 0.00 | 0.00 | 80 | 1014.6 |
| 20260510070009 | 50 | 33 | 7.0 | 18.0 | 0.00 | 0.00 | 0.00 | 80 | 1014.9 |
| 20260510065505 | 50 | 17 | 6.0 | 14.0 | 0.00 | 0.00 | 0.00 | 81 | 1014.9 |
| 20260510065001 | 50 | 8 | 7.0 | 15.0 | 0.00 | 0.00 | 0.00 | 81 | 1014.7 |
| 20260510064457 | 50 | 83 | 7.0 | 14.0 | 0.00 | 0.00 | 0.00 | 81 | 1014.7 |
| 20260510063953 | 50 | 64 | 5.0 | 15.0 | 0.00 | 0.00 | 0.00 | 82 | 1014.8 |
| 20260510063449 | 50 | 291 | 2.0 | 9.0 | 0.00 | 0.00 | 0.00 | 82 | 1014.8 |
| 20260510062945 | 50 | 344 | 3.0 | 4.0 | 0.00 | 0.00 | 0.00 | 82 | 1014.5 |
| 20260510062441 | 49 | 336 | 9.0 | 13.0 | 0.00 | 0.00 | 0.00 | 82 | 1014.7 |
| 20260510061937 | 49 | 32 | 6.0 | 10.0 | 0.00 | 0.00 | 0.00 | 83 | 1014.6 |
| 20260510061433 | 49 | 74 | 2.0 | 13.0 | 0.00 | 0.00 | 0.00 | 83 | 1014.7 |
| 20260510060929 | 50 | 53 | 3.0 | 6.0 | 0.00 | 0.00 | 0.00 | 83 | 1014.7 |
| 20260510060425 | 49 | 33 | 2.0 | 9.0 | 0.00 | 0.00 | 0.00 | 83 | 1014.4 |
| 20260510055921 | 49 | 37 | 3.0 | 11.0 | 0.00 | 0.00 | 0.00 | 83 | 1014.4 |
| 20260510055417 | 49 | 314 | 1.0 | 6.0 | 0.00 | 0.00 | 0.00 | 83 | 1014.4 |
| 20260510054913 | 49 | 18 | 6.0 | 16.0 | 0.00 | 0.00 | 0.00 | 83 | 1014.6 |
| 20260510054409 | 49 | 46 | 10.0 | 13.0 | 0.00 | 0.00 | 0.00 | 83 | 1014.5 |
| 20260510053905 | 49 | 318 | 6.0 | 11.0 | 0.00 | 0.00 | 0.00 | 83 | 1014.3 |
| 20260510053401 | 49 | 42 | 10.0 | 13.0 | 0.00 | 0.00 | 0.00 | 83 | 1014.2 |
| 20260510052857 | 50 | 3 | 8.0 | 11.0 | 0.00 | 0.00 | 0.00 | 83 | 1014.2 |
| 20260510052353 | 49 | 341 | 3.0 | 8.0 | 0.00 | 0.00 | 0.00 | 83 | 1014.4 |
| 20260510051849 | 49 | 350 | 7.0 | 10.0 | 0.00 | 0.00 | 0.00 | 83 | 1014.2 |
| 20260510051345 | 49 | 26 | 4.0 | 11.0 | 0.00 | 0.00 | 0.00 | 83 | 1014.3 |
| 20260510050841 | 49 | 339 | 10.0 | 16.0 | 0.00 | 0.00 | 0.00 | 83 | 1014.3 |
| 20260510050337 | 49 | 28 | 4.0 | 8.0 | 0.00 | 0.00 | 0.00 | 83 | 1014.1 |
| 20260510045833 | 49 | 36 | 7.0 | 14.0 | 0.00 | 0.00 | 0.00 | 83 | 1014.2 |
| 20260510045328 | 49 | 52 | 0.0 | 11.0 | 0.00 | 0.00 | 0.00 | 83 | 1014.3 |
| 20260510044825 | 49 | 32 | 4.0 | 8.0 | 0.00 | 0.00 | 0.00 | 83 | 1014.3 |
| 20260510044321 | 49 | 18 | 4.0 | 11.0 | 0.00 | 0.00 | 0.00 | 84 | 1014.4 |
| 20260510043817 | 49 | 359 | 2.0 | 14.0 | 0.00 | 0.00 | 0.00 | 84 | 1014.5 |
| 20260510043313 | 49 | 52 | 4.0 | 11.0 | 0.00 | 0.00 | 0.00 | 84 | 1014.5 |
| 20260510042809 | 49 | 18 | 5.0 | 10.0 | 0.00 | 0.00 | 0.00 | 84 | 1014.2 |
| 20260510042306 | 49 | 27 | 2.0 | 11.0 | 0.00 | 0.00 | 0.00 | 84 | 1014.5 |
| 20260510041801 | 49 | 341 | 7.0 | 8.0 | 0.00 | 0.00 | 0.00 | 84 | 1014.4 |
| 20260510041257 | 49 | 40 | 9.0 | 14.0 | 0.00 | 0.00 | 0.00 | 85 | 1014.5 |
| 20260510040753 | 49 | 50 | 2.0 | 8.0 | 0.00 | 0.00 | 0.00 | 85 | 1014.3 |
| 20260510040249 | 49 | 19 | 3.0 | 7.0 | 0.00 | 0.00 | 0.00 | 85 | 1014.5 |
| 20260510035745 | 49 | 18 | 5.0 | 9.0 | 0.00 | 0.00 | 0.00 | 85 | 1014.5 |
| 20260510035240 | 49 | 336 | 2.0 | 9.0 | 0.00 | 0.00 | 0.00 | 85 | 1014.4 |
| 20260510034736 | 49 | 346 | 2.0 | 8.0 | 0.00 | 0.00 | 0.00 | 85 | 1014.4 |
| 20260510034232 | 49 | 30 | 6.0 | 10.0 | 0.00 | 0.00 | 0.00 | 85 | 1014.5 |
| 20260510033728 | 49 | 19 | 7.0 | 11.0 | 0.00 | 0.00 | 0.00 | 85 | 1014.8 |
| 20260510033224 | 49 | 28 | 1.0 | 9.0 | 0.00 | 0.00 | 0.00 | 85 | 1014.9 |
| 20260510032720 | 49 | 326 | 4.0 | 7.0 | 0.00 | 0.00 | 0.00 | 84 | 1014.8 |
| 20260510032216 | 49 | 1 | 3.0 | 9.0 | 0.00 | 0.00 | 0.00 | 84 | 1014.8 |
| 20260510031712 | 49 | 319 | 5.0 | 10.0 | 0.00 | 0.00 | 0.00 | 84 | 1014.8 |
| 20260510031208 | 49 | 64 | 1.0 | 6.0 | 0.00 | 0.00 | 0.00 | 85 | 1014.7 |
| 20260510030704 | 49 | 30 | 2.0 | 9.0 | 0.00 | 0.00 | 0.00 | 85 | 1014.8 |
| 20260510030200 | 49 | 329 | 2.0 | 7.0 | 0.00 | 0.00 | 0.00 | 85 | 1014.6 |
| 20260510025656 | 49 | 21 | 5.0 | 7.0 | 0.00 | 0.00 | 0.00 | 85 | 1014.8 |
| 20260510025152 | 49 | 13 | 6.0 | 8.0 | 0.00 | 0.00 | 0.00 | 85 | 1015.1 |
| 20260510024648 | 49 | 355 | 5.0 | 11.0 | 0.00 | 0.00 | 0.00 | 85 | 1015.0 |
| 20260510024144 | 49 | 323 | 2.0 | 8.0 | 0.00 | 0.00 | 0.00 | 85 | 1014.9 |
| 20260510023640 | 49 | 25 | 2.0 | 8.0 | 0.00 | 0.00 | 0.00 | 85 | 1014.6 |
| 20260510023136 | 49 | 23 | 2.0 | 4.0 | 0.00 | 0.00 | 0.00 | 85 | 1014.7 |
| 20260510022632 | 49 | 31 | 8.0 | 11.0 | 0.00 | 0.00 | 0.00 | 85 | 1014.7 |
| 20260510022127 | 49 | 75 | 9.0 | 13.0 | 0.00 | 0.00 | 0.00 | 85 | 1014.6 |
| 20260510021623 | 49 | 322 | 2.0 | 10.0 | 0.00 | 0.00 | 0.00 | 85 | 1014.7 |
| 20260510021119 | 49 | 37 | 4.0 | 13.0 | 0.00 | 0.00 | 0.00 | 85 | 1014.7 |
| 20260510020615 | 49 | 350 | 9.0 | 14.0 | 0.00 | 0.00 | 0.00 | 84 | 1015.0 |
| 20260510020111 | 49 | 21 | 6.0 | 9.0 | 0.00 | 0.00 | 0.00 | 84 | 1015.0 |
| 20260510015607 | 49 | 6 | 6.0 | 11.0 | 0.00 | 0.00 | 0.00 | 84 | 1015.0 |
| 20260510015103 | 49 | 314 | 4.0 | 10.0 | 0.00 | 0.00 | 0.00 | 84 | 1015.1 |
| 20260510014559 | 49 | 6 | 8.0 | 13.0 | 0.00 | 0.00 | 0.00 | 83 | 1015.0 |
| 20260510014055 | 49 | 0 | 4.0 | 8.0 | 0.00 | 0.00 | 0.00 | 83 | 1015.2 |
| 20260510013551 | 49 | 32 | 4.0 | 8.0 | 0.00 | 0.00 | 0.00 | 82 | 1015.0 |
| 20260510013047 | 50 | 43 | 7.0 | 9.0 | 0.00 | 0.00 | 0.00 | 82 | 1015.1 |
| 20260510012543 | 50 | 37 | 7.0 | 9.0 | 0.00 | 0.00 | 0.00 | 81 | 1014.9 |
| 20260510012039 | 50 | 348 | 5.0 | 11.0 | 0.00 | 0.00 | 0.00 | 80 | 1014.9 |
| 20260510011535 | 50 | 330 | 2.0 | 6.0 | 0.00 | 0.00 | 0.00 | 79 | 1015.0 |
| 20260510011031 | 50 | 25 | 6.0 | 8.0 | 0.00 | 0.00 | 0.00 | 78 | 1014.7 |
| 20260510010527 | 51 | 17 | 4.0 | 14.0 | 0.00 | 0.00 | 0.00 | 77 | 1014.8 |
| 20260510010023 | 51 | 343 | 6.0 | 8.0 | 0.00 | 0.00 | 0.00 | 75 | 1015.0 |
| 20260510005519 | 51 | 21 | 6.0 | 11.0 | 0.00 | 0.00 | 0.00 | 73 | 1014.9 |
| 20260510005016 | 51 | 309 | 4.0 | 11.0 | 0.00 | 0.00 | 0.00 | 72 | 1014.8 |
| 20260510004512 | 51 | 41 | 5.0 | 7.0 | 0.00 | 0.00 | 0.00 | 71 | 1014.7 |
| 20260510004008 | 51 | 249 | 4.0 | 10.0 | 0.00 | 0.00 | 0.00 | 70 | 1014.8 |
| 20260510003504 | 51 | 22 | 3.0 | 4.0 | 0.00 | 0.00 | 0.00 | 69 | 1014.7 |
| 20260510003000 | 52 | 28 | 5.0 | 8.0 | 0.00 | 0.00 | 0.00 | 69 | 1014.9 |
| 20260510002456 | 52 | 57 | 3.0 | 7.0 | 0.00 | 0.00 | 0.00 | 69 | 1014.9 |
| 20260510001952 | 52 | 22 | 1.0 | 6.0 | 0.00 | 0.00 | 0.00 | 70 | 1014.8 |
| 20260510001448 | 53 | 325 | 6.0 | 10.0 | 0.00 | 0.00 | 0.00 | 70 | 1015.0 |
| 20260510000944 | 53 | 14 | 2.0 | 9.0 | 0.00 | 0.00 | 0.00 | 71 | 1014.8 |
| 20260510000440 | 53 | 23 | 6.0 | 13.0 | 0.00 | 0.00 | 0.00 | 71 | 1014.8 |
| 20260509235936 | 53 | 356 | 5.0 | 8.0 | 0.00 | 0.00 | 0.00 | 70 | 1014.9 |
| 20260509235432 | 53 | 349 | 3.0 | 10.0 | 0.00 | 0.00 | 0.00 | 70 | 1015.0 |
| 20260509234928 | 54 | 6 | 6.0 | 9.0 | 0.00 | 0.00 | 0.00 | 69 | 1014.9 |
| 20260509234424 | 54 | 18 | 6.0 | 10.0 | 0.00 | 0.00 | 0.00 | 68 | 1014.7 |
| 20260509233920 | 54 | 0 | 5.0 | 8.0 | 0.00 | 0.00 | 0.00 | 66 | 1014.9 |
| 20260509233416 | 54 | 295 | 3.0 | 4.0 | 0.00 | 0.00 | 0.00 | 65 | 1015.0 |
| 20260509232912 | 54 | 311 | 2.0 | 7.0 | 0.00 | 0.00 | 0.00 | 65 | 1015.1 |
| 20260509232408 | 54 | 65 | 3.0 | 8.0 | 0.00 | 0.00 | 0.00 | 64 | 1014.8 |
| 20260509231904 | 54 | 312 | 4.0 | 9.0 | 0.00 | 0.00 | 0.00 | 63 | 1015.0 |
| 20260509231400 | 54 | 18 | 2.0 | 9.0 | 0.00 | 0.00 | 0.00 | 63 | 1015.0 |
| 20260509230856 | 55 | 357 | 2.0 | 7.0 | 0.00 | 0.00 | 0.00 | 63 | 1015.0 |
| 20260509230352 | 55 | 8 | 4.0 | 8.0 | 0.00 | 0.00 | 0.00 | 63 | 1014.7 |
| 20260509225848 | 55 | 30 | 2.0 | 6.0 | 0.00 | 0.00 | 0.00 | 61 | 1015.1 |
| 20260509225343 | 55 | 42 | 8.0 | 8.0 | 0.00 | 0.00 | 0.00 | 60 | 1015.0 |
| 20260509224840 | 55 | 59 | 1.0 | 8.0 | 0.00 | 0.00 | 0.00 | 59 | 1015.0 |
| 20260509224335 | 55 | 340 | 6.0 | 8.0 | 0.00 | 0.00 | 0.00 | 58 | 1014.8 |
| 20260509223831 | 55 | 36 | 1.0 | 7.0 | 0.00 | 0.00 | 0.00 | 57 | 1014.9 |
| 20260509223327 | 56 | 12 | 8.0 | 10.0 | 0.00 | 0.00 | 0.00 | 57 | 1014.8 |
| 20260509222823 | 56 | 90 | 3.0 | 8.0 | 0.00 | 0.00 | 0.00 | 56 | 1015.0 |
| 20260509222319 | 56 | 353 | 2.0 | 6.0 | 0.00 | 0.00 | 0.00 | 55 | 1014.7 |
| 20260509221815 | 56 | 285 | 1.0 | 8.0 | 0.00 | 0.00 | 0.00 | 55 | 1014.8 |
| 20260509221311 | 56 | 32 | 3.0 | 8.0 | 0.00 | 0.00 | 0.00 | 55 | 1014.7 |
| 20260509220807 | 56 | 23 | 3.0 | 7.0 | 0.00 | 0.00 | 0.00 | 55 | 1015.0 |
| 20260509220303 | 56 | 23 | 2.0 | 7.0 | 0.00 | 0.00 | 0.00 | 55 | 1014.9 |
| 20260509215759 | 56 | 20 | 5.0 | 7.0 | 0.00 | 0.00 | 0.00 | 55 | 1014.7 |
| 20260509215256 | 57 | 23 | 2.0 | 7.0 | 0.00 | 0.00 | 0.00 | 55 | 1014.6 |
| 20260509214752 | 57 | 59 | 2.0 | 7.0 | 0.00 | 0.00 | 0.00 | 55 | 1014.8 |
| 20260509214248 | 57 | 51 | 5.0 | 6.0 | 0.00 | 0.00 | 0.00 | 54 | 1014.7 |
| 20260509213744 | 57 | 85 | 2.0 | 4.0 | 0.00 | 0.00 | 0.00 | 54 | 1014.6 |
| 20260509213239 | 57 | 34 | 3.0 | 10.0 | 0.00 | 0.00 | 0.00 | 54 | 1014.9 |
| 20260509212735 | 58 | 46 | 3.0 | 7.0 | 0.00 | 0.00 | 0.00 | 52 | 1014.7 |
| 20260509212231 | 58 | 29 | 5.0 | 7.0 | 0.00 | 0.00 | 0.00 | 51 | 1014.6 |
| 20260509211727 | 58 | 309 | 2.0 | 7.0 | 0.00 | 0.00 | 0.00 | 50 | 1014.4 |
| 20260509211223 | 58 | 59 | 3.0 | 4.0 | 0.00 | 0.00 | 0.00 | 49 | 1014.5 |
| 20260509210719 | 58 | 41 | 2.0 | 4.0 | 0.00 | 0.00 | 0.00 | 49 | 1014.4 |
| 20260509210215 | 58 | 71 | 3.0 | 4.0 | 0.00 | 0.00 | 0.00 | 49 | 1014.4 |
| 20260509205711 | 58 | 65 | 5.0 | 8.0 | 0.00 | 0.00 | 0.00 | 49 | 1014.4 |
| 20260509205208 | 58 | 38 | 4.0 | 10.0 | 0.00 | 0.00 | 0.00 | 48 | 1014.4 |
| 20260509204704 | 58 | 61 | 2.0 | 4.0 | 0.00 | 0.00 | 0.00 | 48 | 1014.3 |
| 20260509204200 | 58 | 48 | 4.0 | 4.0 | 0.00 | 0.00 | 0.00 | 47 | 1014.3 |
| 20260509203656 | 59 | 60 | 3.0 | 6.0 | 0.00 | 0.00 | 0.00 | 47 | 1014.4 |
| 20260509203152 | 59 | 57 | 1.0 | 3.0 | 0.00 | 0.00 | 0.00 | 46 | 1014.3 |
| 20260509202648 | 59 | 55 | 4.0 | 6.0 | 0.00 | 0.00 | 0.00 | 46 | 1014.3 |
| 20260509202144 | 59 | 28 | 4.0 | 7.0 | 0.00 | 0.00 | 0.00 | 45 | 1014.2 |
| 20260509201640 | 59 | 32 | 3.0 | 6.0 | 0.00 | 0.00 | 0.00 | 45 | 1014.1 |
| 20260509201136 | 59 | 53 | 2.0 | 4.0 | 0.00 | 0.00 | 0.00 | 44 | 1014.1 |
| 20260509200632 | 59 | 41 | 4.0 | 6.0 | 0.00 | 0.00 | 0.00 | 43 | 1014.1 |
| 20260509200128 | 60 | 79 | 3.0 | 9.0 | 0.00 | 0.00 | 0.00 | 43 | 1014.2 |
| 20260509195624 | 60 | 58 | 5.0 | 7.0 | 0.00 | 0.00 | 0.00 | 42 | 1014.2 |
| 20260509195120 | 60 | 35 | 3.0 | 7.0 | 0.00 | 0.00 | 0.00 | 41 | 1014.3 |
| 20260509194616 | 60 | 251 | 4.0 | 8.0 | 0.00 | 0.00 | 0.00 | 40 | 1014.2 |
| 20260509194112 | 60 | 46 | 3.0 | 7.0 | 0.00 | 0.00 | 0.00 | 40 | 1013.9 |
| 20260509193608 | 60 | 58 | 1.0 | 7.0 | 0.00 | 0.00 | 0.00 | 40 | 1014.0 |
| 20260509193104 | 60 | 358 | 5.0 | 10.0 | 0.00 | 0.00 | 0.00 | 40 | 1013.7 |
| 20260509192600 | 61 | 70 | 3.0 | 6.0 | 0.00 | 0.00 | 0.00 | 41 | 1013.8 |
| 20260509192056 | 61 | 107 | 8.0 | 11.0 | 0.00 | 0.00 | 0.00 | 40 | 1013.7 |
| 20260509191552 | 61 | 69 | 3.0 | 7.0 | 0.00 | 0.00 | 0.00 | 40 | 1013.8 |
| 20260509191048 | 61 | 37 | 2.0 | 10.0 | 0.00 | 0.00 | 0.00 | 40 | 1013.6 |
| 20260509190544 | 61 | 88 | 8.0 | 11.0 | 0.00 | 0.00 | 0.00 | 40 | 1013.8 |
| 20260509190040 | 62 | 47 | 4.0 | 8.0 | 0.00 | 0.00 | 0.00 | 42 | 1013.5 |
| 20260509185536 | 62 | 72 | 2.0 | 7.0 | 0.00 | 0.00 | 0.00 | 40 | 1013.6 |
| 20260509185031 | 62 | 49 | 5.0 | 7.0 | 0.00 | 0.00 | 0.00 | 40 | 1013.6 |
| 20260509184527 | 62 | 41 | 5.0 | 7.0 | 0.00 | 0.00 | 0.00 | 39 | 1013.6 |
| 20260509184023 | 62 | 100 | 5.0 | 13.0 | 0.00 | 0.00 | 0.00 | 38 | 1013.4 |
| 20260509183519 | 63 | 30 | 5.0 | 9.0 | 0.00 | 0.00 | 0.00 | 39 | 1013.6 |
| 20260509183015 | 63 | 126 | 2.0 | 6.0 | 0.00 | 0.00 | 0.00 | 40 | 1013.6 |
| 20260509182511 | 63 | 97 | 3.0 | 6.0 | 0.00 | 0.00 | 0.00 | 39 | 1013.5 |
| 20260509182007 | 63 | 53 | 6.0 | 8.0 | 0.00 | 0.00 | 0.00 | 40 | 1013.7 |
| 20260509181503 | 63 | 49 | 7.0 | 11.0 | 0.00 | 0.00 | 0.00 | 40 | 1013.5 |
| 20260509180959 | 63 | 92 | 2.0 | 8.0 | 0.00 | 0.00 | 0.00 | 40 | 1013.5 |
| 20260509180455 | 63 | 38 | 4.0 | 8.0 | 0.00 | 0.00 | 0.00 | 40 | 1013.3 |
| 20260509175951 | 63 | 35 | 4.0 | 7.0 | 0.00 | 0.00 | 0.00 | 41 | 1013.2 |
| 20260509175447 | 63 | 24 | 6.0 | 13.0 | 0.00 | 0.00 | 0.00 | 41 | 1013.1 |
| 20260509174944 | 64 | 51 | 5.0 | 11.0 | 0.00 | 0.00 | 0.00 | 41 | 1013.2 |
| 20260509174440 | 64 | 47 | 9.0 | 10.0 | 0.00 | 0.00 | 0.00 | 40 | 1013.1 |
| 20260509173936 | 64 | 58 | 1.0 | 6.0 | 0.00 | 0.00 | 0.00 | 40 | 1013.1 |
| 20260509173432 | 64 | 90 | 5.0 | 15.0 | 0.00 | 0.00 | 0.00 | 40 | 1013.3 |
| 20260509172928 | 65 | 19 | 9.0 | 14.0 | 0.00 | 0.00 | 0.00 | 41 | 1013.0 |
| 20260509172424 | 65 | 13 | 3.0 | 8.0 | 0.00 | 0.00 | 0.00 | 41 | 1013.0 |
| 20260509171920 | 65 | 43 | 5.0 | 13.0 | 0.00 | 0.00 | 0.00 | 41 | 1013.2 |
| 20260509171416 | 65 | 77 | 9.0 | 11.0 | 0.00 | 0.00 | 0.00 | 40 | 1013.1 |
| 20260509170912 | 65 | 86 | 6.0 | 13.0 | 0.00 | 0.00 | 0.00 | 43 | 1013.2 |
| 20260509170408 | 66 | 83 | 7.0 | 10.0 | 0.00 | 0.00 | 0.00 | 42 | 1013.0 |
| 20260509165904 | 66 | 22 | 4.0 | 11.0 | 0.00 | 0.00 | 0.00 | 43 | 1013.0 |
| 20260509165359 | 66 | 89 | 8.0 | 11.0 | 0.00 | 0.00 | 0.00 | 43 | 1013.3 |
| 20260509164856 | 66 | 112 | 3.0 | 8.0 | 0.00 | 0.00 | 0.00 | 43 | 1013.1 |
| 20260509164352 | 66 | 99 | 8.0 | 13.0 | 0.00 | 0.00 | 0.00 | 43 | 1013.1 |
| 20260509163848 | 66 | 78 | 7.0 | 17.0 | 0.00 | 0.00 | 0.00 | 43 | 1013.2 |
| 20260509163344 | 66 | 62 | 6.0 | 10.0 | 0.00 | 0.00 | 0.00 | 43 | 1013.1 |
| 20260509162840 | 66 | 139 | 11.0 | 14.0 | 0.00 | 0.00 | 0.00 | 43 | 1013.2 |
| 20260509162336 | 66 | 182 | 3.0 | 11.0 | 0.00 | 0.00 | 0.00 | 43 | 1013.1 |
| 20260509161832 | 67 | 26 | 6.0 | 10.0 | 0.00 | 0.00 | 0.00 | 43 | 1013.3 |
| 20260509161328 | 67 | 108 | 4.0 | 10.0 | 0.00 | 0.00 | 0.00 | 43 | 1013.3 |
| 20260509160824 | 66 | 92 | 2.0 | 14.0 | 0.00 | 0.00 | 0.00 | 44 | 1013.3 |
| 20260509160320 | 67 | 93 | 10.0 | 16.0 | 0.00 | 0.00 | 0.00 | 43 | 1013.3 |
| 20260509155815 | 67 | 84 | 5.0 | 10.0 | 0.00 | 0.00 | 0.00 | 43 | 1013.4 |
| 20260509155311 | 67 | 44 | 6.0 | 11.0 | 0.00 | 0.00 | 0.00 | 43 | 1013.4 |
| 20260509154807 | 67 | 89 | 6.0 | 9.0 | 0.00 | 0.00 | 0.00 | 43 | 1013.3 |
| 20260509154303 | 67 | 55 | 10.0 | 17.0 | 0.00 | 0.00 | 0.00 | 43 | 1013.3 |
| 20260509153759 | 68 | 65 | 4.0 | 11.0 | 0.00 | 0.00 | 0.00 | 42 | 1013.4 |
| 20260509153255 | 68 | 112 | 4.0 | 11.0 | 0.00 | 0.00 | 0.00 | 43 | 1013.4 |
| 20260509152751 | 67 | 127 | 11.0 | 14.0 | 0.00 | 0.00 | 0.00 | 43 | 1013.6 |
| 20260509152247 | 68 | 74 | 6.0 | 9.0 | 0.00 | 0.00 | 0.00 | 42 | 1013.2 |
| 20260509151743 | 68 | 84 | 2.0 | 11.0 | 0.00 | 0.00 | 0.00 | 42 | 1013.3 |
| 20260509151239 | 69 | 60 | 3.0 | 11.0 | 0.00 | 0.00 | 0.00 | 42 | 1013.1 |
| 20260509150735 | 68 | 69 | 9.0 | 11.0 | 0.00 | 0.00 | 0.00 | 42 | 1013.3 |
| 20260509150231 | 69 | 72 | 4.0 | 10.0 | 0.00 | 0.00 | 0.00 | 41 | 1013.2 |
| 20260509145727 | 69 | 145 | 5.0 | 11.0 | 0.00 | 0.00 | 0.00 | 41 | 1013.2 |
| 20260509145222 | 69 | 329 | 2.0 | 10.0 | 0.00 | 0.00 | 0.00 | 40 | 1013.3 |
| 20260509144718 | 69 | 179 | 7.0 | 10.0 | 0.00 | 0.00 | 0.00 | 39 | 1013.3 |
| 20260509144214 | 69 | 40 | 3.0 | 7.0 | 0.00 | 0.00 | 0.00 | 39 | 1012.9 |
| 20260509143710 | 69 | 58 | 6.0 | 9.0 | 0.00 | 0.00 | 0.00 | 38 | 1013.2 |
| 20260509143206 | 70 | 27 | 2.0 | 3.0 | 0.00 | 0.00 | 0.00 | 37 | 1012.7 |
| 20260509142702 | 69 | 96 | 3.0 | 9.0 | 0.00 | 0.00 | 0.00 | 39 | 1013.0 |
| 20260509142158 | 68 | 154 | 4.0 | 10.0 | 0.00 | 0.00 | 0.00 | 39 | 1013.2 |
| 20260509141654 | 69 | 111 | 5.0 | 8.0 | 0.00 | 0.00 | 0.00 | 38 | 1012.8 |
| 20260509141150 | 70 | 17 | 3.0 | 8.0 | 0.00 | 0.00 | 0.00 | 37 | 1013.0 |
| 20260509140646 | 69 | 99 | 5.0 | 9.0 | 0.00 | 0.00 | 0.00 | 38 | 1013.1 |
| 20260509140142 | 69 | 32 | 7.0 | 9.0 | 0.00 | 0.00 | 0.00 | 36 | 1013.1 |
| 20260509135638 | 69 | 63 | 6.0 | 8.0 | 0.00 | 0.00 | 0.00 | 37 | 1013.1 |
| 20260509135133 | 69 | 31 | 6.0 | 13.0 | 0.00 | 0.00 | 0.00 | 38 | 1013.2 |
| 20260509134629 | 69 | 49 | 4.0 | 10.0 | 0.00 | 0.00 | 0.00 | 37 | 1013.0 |
| 20260509134125 | 69 | 12 | 4.0 | 9.0 | 0.00 | 0.00 | 0.00 | 38 | 1013.0 |
| 20260509133621 | 68 | 59 | 4.0 | 8.0 | 0.00 | 0.00 | 0.00 | 38 | 1013.1 |
| 20260509133117 | 69 | 344 | 2.0 | 6.0 | 0.00 | 0.00 | 0.00 | 38 | 1013.3 |
| 20260509132613 | 68 | 83 | 5.0 | 11.0 | 0.00 | 0.00 | 0.00 | 39 | 1013.0 |
| 20260509132109 | 68 | 47 | 6.0 | 10.0 | 0.00 | 0.00 | 0.00 | 40 | 1013.4 |
| 20260509131605 | 69 | 43 | 10.0 | 14.0 | 0.00 | 0.00 | 0.00 | 39 | 1013.3 |
| 20260509131101 | 69 | 24 | 5.0 | 9.0 | 0.00 | 0.00 | 0.00 | 39 | 1013.5 |
| 20260509130557 | 68 | 37 | 4.0 | 10.0 | 0.00 | 0.00 | 0.00 | 40 | 1013.4 |
| 20260509130053 | 68 | 101 | 7.0 | 9.0 | 0.00 | 0.00 | 0.00 | 41 | 1013.4 |
| 20260509125549 | 67 | 18 | 5.0 | 9.0 | 0.00 | 0.00 | 0.00 | 41 | 1013.5 |